�N����,����,�~����,�C��,���x,�C��,����,���ϕ���,�ő�u�ԕ���,�ő厞����,���˗�,�I�_���x,�n�����x,�ő啗���N��,DTYPE
"21/07/22","00:10",0.0,24.0,76.3,1008.6,329.7,0.6,1.4,327.9,0.00,19.6,26.9,"00:06:56",1
"21/07/22","00:20",0.0,24.0,76.4,1008.8,324.7,1.0,1.9,332.0,0.00,19.6,26.7,"00:10:48",1
"21/07/22","00:30",0.0,23.9,76.8,1008.3,300.9,1.0,1.8,313.8,0.00,19.6,26.7,"00:20:48",1
"21/07/22","00:40",0.0,23.8,77.4,1008.6,302.2,1.0,1.4,339.9,0.00,19.6,26.6,"00:38:08",1
"21/07/22","00:50",0.0,23.5,78.1,1008.3,334.6,0.8,1.3,342.9,0.00,19.5,26.7,"00:42:56",1
"21/07/22","01:00",0.0,23.2,79.1,1008.3,318.7,0.8,1.2,319.8,0.00,19.4,26.6,"00:51:52",1
"21/07/22","01:10",0.0,23.0,79.9,1008.8,292.5,0.7,1.1,296.3,0.00,19.4,26.5,"01:00:16",1
"21/07/22","01:20",0.0,22.9,80.5,1008.6,303.0,1.0,2.0,306.0,0.00,19.4,26.4,"01:18:40",1
"21/07/22","01:30",0.0,23.2,80.3,1008.6,297.3,1.0,1.6,305.8,0.00,19.7,26.5,"01:22:24",1
"21/07/22","01:40",0.0,23.1,80.1,1008.6,279.4,0.7,1.2,260.8,0.00,19.5,26.5,"01:35:20",1
"21/07/22","01:50",0.0,23.1,80.3,1008.3,316.9,1.0,1.7,338.3,0.00,19.6,26.4,"01:44:48",1
"21/07/22","02:00",0.0,22.7,80.9,1008.3,321.1,0.8,1.4,353.6,0.00,19.3,26.3,"01:50:40",1
"21/07/22","02:10",0.0,22.5,81.8,1008.3,298.4,0.7,1.7,326.0,0.00,19.3,26.4,"02:09:20",1
"21/07/22","02:20",0.0,22.5,82.5,1007.8,333.4,0.8,1.6,323.0,0.00,19.4,26.4,"02:11:28",1
"21/07/22","02:30",0.0,22.3,82.9,1008.3,315.5,0.6,1.2,320.5,0.00,19.3,26.2,"02:20:24",1
"21/07/22","02:40",0.0,22.4,83.6,1008.1,329.4,1.0,1.6,322.5,0.00,19.5,26.2,"02:36:56",1
"21/07/22","02:50",0.0,22.4,84.4,1008.1,322.8,1.3,1.9,313.4,0.00,19.7,26.1,"02:48:40",1
"21/07/22","03:00",0.0,22.5,84.8,1008.6,329.6,1.1,1.7,336.4,0.00,19.9,26.2,"02:50:56",1
"21/07/22","03:10",0.0,22.6,85.1,1008.6,329.5,1.1,1.8,341.8,0.00,20.0,26.1,"03:02:00",1
"21/07/22","03:20",0.0,22.5,85.3,1008.6,324.3,0.6,1.2,267.8,0.00,19.9,26.0,"03:12:56",1
"21/07/22","03:30",0.0,22.5,85.5,1008.6,312.3,0.8,1.3,313.7,0.00,20.0,26.0,"03:29:12",1
"21/07/22","03:40",0.0,22.3,85.7,1008.3,312.3,0.8,1.4,311.1,0.00,19.8,26.0,"03:39:36",1
"21/07/22","03:50",0.0,22.2,86.0,1008.6,322.7,1.1,1.6,336.2,0.00,19.8,26.0,"03:40:32",1
"21/07/22","04:00",0.0,22.3,86.3,1008.6,300.3,0.8,1.7,295.4,0.00,19.9,26.0,"03:51:12",1
"21/07/22","04:10",0.0,22.4,86.5,1008.1,297.4,1.0,1.7,296.1,0.00,20.1,26.0,"04:02:16",1
"21/07/22","04:20",0.0,22.5,86.5,1008.3,291.4,1.0,1.4,268.6,0.00,20.2,25.9,"04:15:52",1
"21/07/22","04:30",0.0,22.5,86.6,1008.3,295.3,1.0,1.7,272.8,0.00,20.2,25.7,"04:25:12",1
"21/07/22","04:40",0.0,22.4,86.6,1008.6,304.8,1.0,1.4,316.8,0.00,20.1,25.9,"04:34:00",1
"21/07/22","04:50",0.0,22.5,86.6,1008.6,316.1,1.3,2.1,333.3,0.00,20.2,25.9,"04:41:36",1
"21/07/22","05:00",0.0,22.4,86.6,1008.6,327.3,1.0,1.4,320.3,0.00,20.1,25.7,"04:56:08",1
"21/07/22","05:10",0.0,22.3,86.9,1008.3,280.5,0.8,1.3,269.4,0.00,20.1,25.7,"05:08:08",1
"21/07/22","05:20",0.0,22.3,86.9,1008.1,296.9,0.7,1.1,287.4,0.00,20.1,25.5,"05:10:08",1
"21/07/22","05:30",0.0,22.3,87.1,1008.3,302.3,1.0,1.4,313.6,0.00,20.1,25.6,"05:23:28",1
"21/07/22","05:40",0.0,22.3,87.2,1008.3,315.4,1.1,1.4,326.2,0.00,20.1,25.7,"05:36:08",1
"21/07/22","05:50",0.0,22.3,87.4,1008.3,308.5,1.0,1.3,332.8,0.00,20.1,25.6,"05:45:52",1
"21/07/22","06:00",0.0,22.5,87.6,1008.3,331.6,1.1,1.3,321.1,0.00,20.4,25.4,"05:51:20",1
"21/07/22","06:10",0.0,22.8,87.8,1008.3,340.2,1.1,1.8,338.1,0.00,20.7,25.7,"06:02:48",1
"21/07/22","06:20",0.0,23.1,88.1,1008.3,338.4,1.0,1.9,342.1,0.02,21.1,25.5,"06:14:08",1
"21/07/22","06:30",0.0,23.8,88.3,1008.1,295.3,0.7,1.2,321.6,0.03,21.8,25.6,"06:25:04",1
"21/07/22","06:40",0.0,24.5,87.8,1008.1,275.3,0.7,1.4,261.5,0.05,22.4,25.4,"06:36:48",1
"21/07/22","06:50",0.0,25.0,86.9,1008.3,286.0,0.7,1.1,259.7,0.06,22.7,25.4,"06:48:40",1
"21/07/22","07:00",0.0,26.2,85.8,1008.1,343.5,0.5,1.4,342.8,0.09,23.7,25.5,"06:53:20",1
"21/07/22","07:10",0.0,26.8,83.1,1007.8,346.7,0.6,1.1,346.4,0.11,23.7,25.4,"07:05:12",1
"21/07/22","07:20",0.0,27.7,79.8,1007.8,310.7,0.2,0.9,22.5,0.13,23.9,25.5,"07:10:40",1
"21/07/22","07:30",0.0,28.6,76.8,1007.4,111.9,0.5,2.0,127.2,0.16,24.2,25.4,"07:26:16",1
"21/07/22","07:40",0.0,29.2,72.9,1007.8,120.5,0.5,1.4,41.8,0.19,23.9,25.2,"07:39:44",1
"21/07/22","07:50",0.0,29.0,70.5,1007.8,139.0,1.2,2.4,130.1,0.21,23.1,25.4,"07:44:56",1
"21/07/22","08:00",0.0,29.4,69.6,1008.1,94.7,1.0,2.0,123.4,0.24,23.3,25.5,"07:51:44",1
"21/07/22","08:10",0.0,29.6,68.4,1008.3,118.3,1.0,2.2,106.3,0.27,23.2,25.4,"08:01:12",1
"21/07/22","08:20",0.0,29.9,67.5,1008.3,109.7,1.0,3.1,126.1,0.29,23.3,25.4,"08:11:52",1
"21/07/22","08:30",0.0,30.3,66.7,1008.1,111.5,1.0,2.2,127.8,0.27,23.5,25.4,"08:23:20",1
"21/07/22","08:40",0.0,30.1,66.6,1008.1,105.2,1.0,2.6,96.5,0.26,23.2,25.4,"08:36:16",1
"21/07/22","08:50",0.0,30.6,65.9,1007.8,109.1,1.0,3.6,116.1,0.35,23.5,25.7,"08:41:12",1
"21/07/22","09:00",0.0,30.7,65.2,1008.3,112.5,1.1,2.5,97.4,0.35,23.5,25.6,"08:52:00",1
"21/07/22","09:10",0.0,30.8,64.3,1008.3,113.6,1.0,2.0,76.5,0.34,23.3,25.7,"09:01:04",1
"21/07/22","09:20",0.0,31.3,63.4,1008.6,99.9,1.2,2.9,112.3,0.44,23.6,25.7,"09:18:00",1
"21/07/22","09:30",0.0,31.6,62.5,1008.8,141.5,1.0,2.0,132.8,0.37,23.6,25.8,"09:24:56",1
"21/07/22","09:40",0.0,31.3,62.2,1008.6,110.4,1.1,2.7,157.6,0.38,23.2,25.7,"09:30:48",1
"21/07/22","09:50",0.0,31.7,61.6,1009.0,132.3,1.6,4.2,135.0,0.47,23.5,25.7,"09:43:20",1
"21/07/22","10:00",0.0,32.0,61.2,1009.0,146.5,1.5,3.5,172.1,0.52,23.6,25.9,"09:56:00",1
"21/07/22","10:10",0.0,32.3,58.8,1009.0,142.8,1.6,3.5,198.8,0.54,23.2,26.1,"10:02:56",1
"21/07/22","10:20",0.0,32.4,59.3,1009.0,130.4,1.5,3.7,151.5,0.55,23.5,25.8,"10:12:56",1
"21/07/22","10:30",0.0,32.4,57.6,1008.8,140.9,1.7,4.4,158.8,0.57,23.0,26.2,"10:22:08",1
"21/07/22","10:40",0.0,32.7,58.7,1009.3,149.8,1.8,4.2,213.0,0.55,23.6,26.3,"10:33:20",1
"21/07/22","10:50",0.0,32.0,58.5,1009.0,143.7,1.7,4.9,214.4,0.34,22.9,26.2,"10:46:48",1
"21/07/22","11:00",0.0,32.2,58.2,1008.3,114.4,1.2,2.6,200.6,0.40,23.0,26.3,"10:51:44",1
"21/07/22","11:10",0.0,32.1,58.6,1008.6,149.9,1.6,3.3,145.8,0.47,23.0,26.6,"11:07:12",1
"21/07/22","11:20",0.0,32.1,58.2,1008.3,162.5,2.2,3.6,124.2,0.54,22.9,26.5,"11:11:20",1
"21/07/22","11:30",0.0,33.0,57.2,1008.3,126.9,1.3,4.4,130.2,0.54,23.4,26.6,"11:23:28",1
"21/07/22","11:40",0.0,33.6,55.6,1008.6,109.4,1.2,2.8,103.4,0.59,23.5,26.6,"11:35:04",1
"21/07/22","11:50",0.0,33.4,54.7,1008.8,119.2,1.3,3.9,123.2,0.54,23.1,26.6,"11:47:04",1
"21/07/22","12:00",0.0,33.4,55.0,1008.6,129.0,1.3,3.4,40.8,0.55,23.2,26.8,"11:57:44",1
"21/07/22","12:10",0.0,33.5,54.8,1008.3,143.9,1.7,3.7,205.5,0.60,23.2,26.8,"12:07:28",1
"21/07/22","12:20",0.0,33.9,54.1,1007.8,120.7,1.5,2.6,166.9,0.56,23.4,26.9,"12:14:24",1
"21/07/22","12:30",0.0,33.7,55.1,1008.3,134.5,1.3,4.3,83.6,0.54,23.5,27.0,"12:22:40",1
"21/07/22","12:40",0.0,34.3,52.0,1008.1,104.0,1.2,2.9,126.0,0.56,23.1,27.0,"12:39:52",1
"21/07/22","12:50",0.0,34.4,54.1,1007.6,146.0,1.5,3.2,172.9,0.58,23.8,27.3,"12:41:44",1
"21/07/22","13:00",0.0,34.5,52.5,1007.8,133.3,1.5,3.5,135.3,0.59,23.4,27.0,"12:54:40",1
"21/07/22","13:10",0.0,34.7,51.9,1007.8,124.4,1.3,3.9,153.7,0.58,23.4,27.5,"13:08:16",1
"21/07/22","13:20",0.0,34.6,50.8,1007.8,136.2,1.7,4.1,130.0,0.57,23.0,27.3,"13:13:20",1
"21/07/22","13:30",0.0,34.7,49.5,1008.1,138.8,1.7,3.4,148.9,0.57,22.6,27.5,"13:25:04",1
"21/07/22","13:40",0.0,35.2,49.0,1007.8,111.3,1.2,3.5,153.8,0.55,22.9,27.2,"13:35:20",1
"21/07/22","13:50",0.0,35.1,48.8,1007.8,116.7,1.5,4.8,150.1,0.53,22.8,27.7,"13:47:36",1
"21/07/22","14:00",0.0,35.2,47.6,1007.6,123.7,1.3,4.3,101.0,0.53,22.4,27.6,"13:59:44",1
"21/07/22","14:10",0.0,35.3,47.1,1007.4,132.6,1.3,3.3,126.2,0.53,22.3,27.7,"14:07:04",1
"21/07/22","14:20",0.0,35.7,44.7,1007.4,124.3,1.1,2.5,91.5,0.52,21.9,27.7,"14:13:36",1
"21/07/22","14:30",0.0,35.5,45.5,1007.6,111.1,1.2,3.1,164.2,0.42,22.0,27.7,"14:26:56",1
"21/07/22","14:40",0.0,35.9,44.3,1007.4,58.2,0.8,2.8,1.0,0.49,21.9,27.7,"14:38:56",1
"21/07/22","14:50",0.0,36.0,43.5,1007.4,94.4,1.1,3.7,358.9,0.47,21.7,27.7,"14:47:44",1
"21/07/22","15:00",0.0,35.6,44.0,1006.9,133.3,1.2,3.3,146.3,0.46,21.5,28.0,"14:50:48",1
"21/07/22","15:10",0.0,35.7,45.7,1007.1,111.1,1.5,2.8,154.1,0.44,22.2,27.9,"15:05:36",1
"21/07/22","15:20",0.0,36.0,43.6,1006.9,93.4,1.1,2.2,104.1,0.42,21.7,28.0,"15:15:12",1
"21/07/22","15:30",0.0,36.0,43.7,1006.9,103.7,1.0,2.4,110.6,0.40,21.8,27.7,"15:20:24",1
"21/07/22","15:40",0.0,36.0,42.2,1006.2,80.9,1.2,2.8,90.7,0.38,21.2,28.2,"15:31:36",1
"21/07/22","15:50",0.0,36.0,41.7,1006.4,81.5,1.1,2.7,113.2,0.36,21.0,28.1,"15:45:52",1
"21/07/22","16:00",0.0,36.1,39.8,1006.2,84.8,0.8,2.2,5.6,0.34,20.3,27.9,"15:52:32",1
"21/07/22","16:10",0.0,35.9,41.6,1006.2,111.8,1.0,2.8,109.6,0.31,20.9,28.2,"16:07:44",1
"21/07/22","16:20",0.0,35.7,41.5,1006.2,89.2,1.1,2.1,150.6,0.29,20.6,28.1,"16:14:08",1
"21/07/22","16:30",0.0,35.7,42.2,1006.2,87.4,0.8,2.0,109.8,0.27,20.9,28.1,"16:25:20",1
"21/07/22","16:40",0.0,35.6,42.2,1006.2,95.7,1.0,1.9,77.3,0.24,20.8,28.1,"16:38:40",1
"21/07/22","16:50",0.0,35.6,43.3,1006.2,59.4,1.0,2.4,38.6,0.21,21.2,28.2,"16:40:24",1
"21/07/22","17:00",0.0,35.2,42.0,1006.2,47.3,1.2,2.8,38.9,0.16,20.4,28.2,"16:54:48",1
"21/07/22","17:10",0.0,34.8,43.4,1006.0,108.0,0.8,2.1,103.1,0.15,20.6,28.4,"17:08:56",1
"21/07/22","17:20",0.0,34.7,44.5,1006.2,107.6,1.1,2.9,130.4,0.15,20.9,28.3,"17:10:48",1
"21/07/22","17:30",0.0,34.8,44.4,1006.0,100.7,0.7,3.5,12.5,0.09,20.9,28.3,"17:20:08",1
"21/07/22","17:40",0.0,34.2,43.0,1006.0,129.9,1.3,2.8,127.4,0.02,19.9,28.1,"17:32:32",1
"21/07/22","17:50",0.0,34.2,41.2,1005.7,87.6,1.1,3.2,77.9,0.01,19.2,28.4,"17:45:36",1
"21/07/22","18:00",0.0,33.8,41.5,1005.2,117.0,1.1,3.3,146.3,0.01,18.9,28.2,"17:54:48",1
"21/07/22","18:10",0.0,33.4,42.3,1005.2,105.9,1.2,2.9,91.7,0.01,18.9,28.4,"18:01:20",1
"21/07/22","18:20",0.0,33.2,44.0,1005.5,116.6,0.8,2.1,88.5,0.01,19.3,28.4,"18:10:48",1
"21/07/22","18:30",0.0,32.8,44.1,1005.7,118.4,1.0,2.5,100.8,0.00,19.0,28.3,"18:29:36",1
"21/07/22","18:40",0.0,32.4,46.4,1005.2,122.1,1.1,3.3,132.2,0.00,19.5,28.2,"18:38:40",1
"21/07/22","18:50",0.0,32.1,48.2,1005.0,105.8,1.2,2.7,112.7,0.00,19.8,28.0,"18:49:36",1
"21/07/22","19:00",0.0,31.8,47.9,1004.5,96.4,1.2,2.6,96.3,0.00,19.4,28.1,"18:56:40",1
"21/07/22","19:10",0.0,31.5,48.5,1004.5,93.9,1.1,2.4,94.1,0.00,19.4,28.2,"19:07:12",1
"21/07/22","19:20",0.0,31.2,49.1,1004.3,90.4,1.1,3.1,59.6,0.00,19.3,28.2,"19:11:04",1
"21/07/22","19:30",0.0,31.0,49.4,1003.8,82.0,1.1,3.1,92.9,0.00,19.2,28.2,"19:24:00",1
"21/07/22","19:40",0.0,30.7,50.3,1004.3,84.1,0.7,1.7,101.4,0.00,19.2,28.1,"19:34:40",1
"21/07/22","19:50",0.0,30.3,51.3,1004.3,85.3,0.8,2.4,35.1,0.00,19.2,28.2,"19:46:40",1
"21/07/22","20:00",0.0,30.3,52.0,1004.3,81.7,1.1,2.6,133.9,0.00,19.4,27.7,"19:59:04",1
"21/07/22","20:10",0.0,30.0,53.3,1003.8,61.8,0.7,1.7,1.9,0.00,19.5,27.8,"20:07:04",1
"21/07/22","20:20",0.0,29.8,55.0,1004.3,16.5,0.8,1.8,8.8,0.00,19.8,27.7,"20:12:24",1
"21/07/22","20:30",0.0,29.0,58.3,1004.5,348.6,0.8,1.7,344.5,0.00,20.0,27.8,"20:28:08",1
"21/07/22","20:40",0.0,28.9,60.0,1005.0,63.8,0.8,2.0,49.7,0.00,20.4,27.7,"20:35:12",1
"21/07/22","20:50",0.0,28.9,61.0,1004.5,17.1,1.0,1.7,59.6,0.00,20.7,27.9,"20:42:08",1
"21/07/22","21:00",0.0,28.0,63.4,1005.0,348.2,0.8,1.9,350.4,0.00,20.4,27.7,"20:54:32",1
"21/07/22","21:10",0.0,27.2,65.2,1005.2,319.4,0.6,1.1,343.5,0.00,20.1,27.8,"21:00:24",1
"21/07/22","21:20",0.0,26.8,66.4,1005.2,280.1,0.8,1.3,321.9,0.00,20.1,27.6,"21:17:36",1
"21/07/22","21:30",0.0,26.7,67.1,1005.2,277.8,0.7,1.3,259.2,0.00,20.1,27.6,"21:25:36",1
"21/07/22","21:40",0.0,26.5,67.7,1005.5,259.9,0.7,1.4,248.4,0.00,20.1,27.4,"21:33:44",1
"21/07/22","21:50",0.0,26.3,68.4,1005.5,314.6,0.6,1.6,273.4,0.00,20.1,27.4,"21:44:08",1
"21/07/22","22:00",0.0,26.2,69.7,1005.7,329.8,0.8,1.7,343.2,0.00,20.3,27.6,"21:57:52",1
"21/07/22","22:10",0.0,25.8,71.8,1006.0,334.5,0.8,1.3,330.3,0.00,20.4,27.3,"22:04:40",1
"21/07/22","22:20",0.0,25.4,73.5,1006.2,295.5,0.6,1.8,350.6,0.00,20.4,27.1,"22:19:04",1
"21/07/22","22:30",0.0,25.2,74.9,1005.7,317.0,1.1,2.2,344.9,0.00,20.5,27.2,"22:27:52",1
"21/07/22","22:40",0.0,25.2,75.5,1006.0,346.9,0.8,1.7,343.7,0.00,20.6,27.3,"22:31:12",1
"21/07/22","22:50",0.0,25.1,76.9,1006.4,333.5,1.0,1.7,346.0,0.00,20.8,27.1,"22:44:40",1
"21/07/22","23:00",0.0,24.6,78.0,1006.2,316.0,1.0,2.4,346.3,0.00,20.5,27.0,"22:58:56",1
"21/07/22","23:10",0.0,24.7,78.3,1006.7,344.1,1.0,1.8,342.5,0.00,20.7,27.1,"23:08:32",1
"21/07/22","23:20",0.0,24.4,79.0,1006.2,327.6,0.7,1.6,336.2,0.00,20.6,27.1,"23:13:52",1
"21/07/22","23:30",0.0,24.2,80.1,1006.4,281.2,0.8,1.8,346.0,0.00,20.6,27.2,"23:26:40",1
"21/07/22","23:40",0.0,24.3,80.4,1006.4,318.4,1.0,1.7,339.7,0.00,20.7,26.9,"23:39:44",1
"21/07/22","23:50",0.0,24.3,80.5,1006.7,316.2,0.8,1.4,330.2,0.00,20.8,26.9,"23:44:00",1
"21/07/22","24:00",0.0,24.1,80.8,1006.4,325.6,0.7,1.2,334.8,0.00,20.6,26.7,"23:59:36",1
